FW7793 Weather Reports


time (UTC)temp
C
wind
direction
speed
KPH
gust
KPH
rain 1hr
cm
rain 24hr
cm
rain mn
cm
humidity
%
barometer
mb
20260506201432 32 197 8.0 9.7 0.00 0.00 0.00 40 1009.8
20260506200929 32 61 9.7 11.3 0.00 0.00 0.00 38 1009.8
20260506200425 32 216 3.2 3.2 0.00 0.00 0.00 40 1010.0
20260506195921 32 193 4.8 4.8 0.00 0.00 0.00 40 1009.9
20260506195419 32 201 6.4 11.3 0.00 0.00 0.00 42 1009.9
20260506194915 32 188 3.2 3.2 0.00 0.00 0.00 40 1010.3
20260506194412 32 203 6.4 9.7 0.00 0.00 0.00 38 1010.2
20260506193909 32 192 3.2 4.8 0.00 0.00 0.00 46 1010.3
20260506193406 32 174 3.2 3.2 0.00 0.00 0.00 41 1010.5
20260506192902 32 241 3.2 4.8 0.00 0.00 0.00 40 1010.5
20260506192359 32 202 3.2 3.2 0.00 0.00 0.00 42 1010.3
20260506191856 32 126 1.6 3.2 0.00 0.00 0.00 41 1010.4
20260506191352 32 196 1.6 1.6 0.00 0.00 0.00 44 1010.4
20260506190850 31 169 3.2 3.2 0.00 0.00 0.00 44 1010.6
20260506190346 31 176 1.6 1.6 0.00 0.00 0.00 44 1010.6
20260506185843 31 181 0.0 1.6 0.00 0.00 0.00 43 1010.8
20260506185340 31 223 4.8 4.8 0.00 0.00 0.00 44 1010.8
20260506184837 32 226 4.8 8.0 0.00 0.00 0.00 43 1010.9
20260506184334 32 207 4.8 8.0 0.00 0.00 0.00 42 1011.0
20260506183832 32 202 6.4 9.7 0.00 0.00 0.00 44 1010.9
20260506183326 32 183 3.2 4.8 0.00 0.00 0.00 43 1011.0
20260506182824 32 269 6.4 8.0 0.00 0.00 0.00 43 1011.0
20260506182321 31 185 4.8 4.8 0.00 0.00 0.00 46 1011.1
20260506181819 31 119 4.8 4.8 0.00 0.00 0.00 43 1011.3
20260506181316 31 154 1.6 3.2 0.00 0.00 0.00 44 1011.3
20260506180814 31 71 3.2 3.2 0.00 0.00 0.00 41 1011.3
20260506180309 31 188 3.2 3.2 0.00 0.00 0.00 48 1011.6
20260506175806 31 191 9.7 11.3 0.00 0.00 0.00 46 1011.5
20260506175306 31 168 3.2 3.2 0.00 0.00 0.00 43 1011.5
20260506174800 31 226 3.2 4.8 0.00 0.00 0.00 46 1011.8
20260506174257 31 146 4.8 4.8 0.00 0.00 0.00 43 1012.0
20260506173755 31 164 1.6 3.2 0.00 0.00 0.00 44 1012.2
20260506173251 31 131 6.4 14.5 0.00 0.00 0.00 46 1011.8
20260506172748 30 180 4.8 4.8 0.00 0.00 0.00 46 1012.2
20260506172245 30 114 4.8 8.0 0.00 0.00 0.00 45 1012.2
20260506171743 30 217 8.0 12.9 0.00 0.00 0.00 48 1012.2
20260506171239 30 24 3.2 4.8 0.00 0.00 0.00 47 1012.5
20260506170737 30 71 12.9 17.7 0.00 0.00 0.00 45 1012.4
20260506170233 30 178 4.8 8.0 0.00 0.00 0.00 47 1012.4
20260506165732 30 199 1.6 3.2 0.00 0.00 0.00 45 1012.6
20260506165229 30 171 4.8 11.3 0.00 0.00 0.00 50 1012.5
20260506164726 30 163 6.4 8.0 0.00 0.00 0.00 46 1012.7
20260506164223 29 161 3.2 3.2 0.00 0.00 0.00 49 1012.8
20260506163719 30 216 3.2 8.0 0.00 0.00 0.00 48 1013.0
20260506163214 30 145 6.4 8.0 0.00 0.00 0.00 49 1013.1
20260506162711 30 208 8.0 9.7 0.00 0.00 0.00 48 1012.9
20260506162208 30 183 0.0 1.6 0.00 0.00 0.00 49 1012.9
20260506161705 29 199 4.8 8.0 0.00 0.00 0.00 54 1013.2
20260506161202 29 104 1.6 1.6 0.00 0.00 0.00 49 1013.0
20260506160700 28 223 4.8 4.8 0.00 0.00 0.00 51 1013.1
20260506160156 29 122 9.7 11.3 0.00 0.00 0.00 48 1013.1
20260506155655 28 214 3.2 3.2 0.00 0.00 0.00 51 1013.2
20260506155152 28 146 6.4 9.7 0.00 0.00 0.00 51 1013.2
20260506153300 27 151 1.6 3.2 0.00 0.00 0.00 52 1013.3
20260506152756 28 142 3.2 3.2 0.00 0.00 0.00 53 1013.0
20260506152254 27 172 3.2 3.2 0.00 0.00 0.00 54 1013.0
20260506151753 27 169 1.6 3.2 0.00 0.00 0.00 52 1012.9
20260506151249 27 171 3.2 3.2 0.00 0.00 0.00 52 1013.3
20260506150745 27 158 6.4 9.7 0.00 0.00 0.00 55 1013.3
20260506150243 26 186 3.2 4.8 0.00 0.00 0.00 55 1013.2
20260506145740 27 195 4.8 4.8 0.00 0.00 0.00 55 1013.5
20260506145236 26 238 9.7 11.3 0.00 0.00 0.00 55 1013.2
20260506144734 26 180 4.8 8.0 0.00 0.00 0.00 56 1013.2
20260506144230 26 199 6.4 8.0 0.00 0.00 0.00 55 1013.0
20260506143728 26 211 4.8 4.8 0.00 0.00 0.00 56 1013.0
20260506143225 26 220 4.8 4.8 0.00 0.00 0.00 55 1013.0
20260506142724 26 179 1.6 3.2 0.00 0.00 0.00 57 1013.0
20260506142221 25 192 1.6 1.6 0.00 0.00 0.00 58 1012.7
20260506141719 25 152 1.6 3.2 0.00 0.00 0.00 61 1013.0
20260506141217 25 173 1.6 3.2 0.00 0.00 0.00 61 1012.8
20260506140715 25 198 4.8 8.0 0.00 0.00 0.00 62 1013.1
20260506140211 24 158 1.6 3.2 0.00 0.00 0.00 60 1013.2
20260506135708 24 166 1.6 1.6 0.00 0.00 0.00 63 1013.0
20260506135204 23 202 1.6 3.2 0.00 0.00 0.00 65 1012.9
20260506134701 23 117 1.6 3.2 0.00 0.00 0.00 64 1013.0
20260506134157 23 168 6.4 9.7 0.00 0.00 0.00 65 1012.7
20260506133655 22 198 4.8 8.0 0.00 0.00 0.00 70 1012.8
20260506133151 22 217 6.4 9.7 0.00 0.00 0.00 69 1012.6
20260506132649 22 173 1.6 1.6 0.00 0.00 0.00 71 1012.4
20260506132145 22 217 4.8 4.8 0.00 0.00 0.00 69 1012.4
20260506131643 22 176 1.6 3.2 0.00 0.00 0.00 73 1012.3
20260506131139 22 176 3.2 8.0 0.00 0.00 0.00 71 1012.7
20260506130636 21 189 1.6 3.2 0.00 0.00 0.00 74 1012.5
20260506130133 21 162 0.0 0.0 0.00 0.00 0.00 74 1012.3
20260506125632 21 176 1.6 1.6 0.00 0.00 0.00 75 1012.2
20260506125129 21 142 1.6 1.6 0.00 0.00 0.00 78 1012.1
20260506124627 21 150 3.2 3.2 0.00 0.00 0.00 79 1012.5
20260506124124 20 165 4.8 4.8 0.00 0.00 0.00 78 1012.4
20260506123622 20 132 1.6 3.2 0.00 0.00 0.00 82 1012.4
20260506123120 19 132 0.0 0.0 0.00 0.00 0.00 83 1012.6
20260506122617 18 179 1.6 3.2 0.00 0.00 0.00 83 1012.7
20260506122114 18 173 0.0 0.0 0.00 0.00 0.00 85 1012.5
20260506121612 18 137 0.0 1.6 0.00 0.00 0.00 86 1012.2
20260506121108 17 130 0.0 0.0 0.00 0.00 0.00 87 1012.3
20260506120606 17 143 0.0 0.0 0.00 0.00 0.00 89 1012.3
20260506120103 17 144 0.0 0.0 0.00 0.00 0.00 89 1012.3
20260506115602 16 144 0.0 0.0 0.00 0.00 0.00 91 1012.4
20260506115059 16 145 0.0 0.0 0.00 0.00 0.00 92 1012.0
20260506114556 16 145 0.0 0.0 0.00 0.00 0.00 94 1012.4
20260506114055 16 145 0.0 0.0 0.00 0.00 0.00 97 1012.2
20260506113552 15 145 0.0 0.0 0.00 0.00 0.00 98 1012.0
20260506113049 14 145 0.0 0.0 0.00 0.00 0.00 98 1012.1
20260506112546 14 146 0.0 0.0 0.00 0.00 0.00 97 1012.2
20260506112043 13 146 0.0 0.0 0.00 0.00 0.00 97 1012.0
20260506111541 13 146 0.0 0.0 0.00 0.00 0.00 97 1012.0
20260506111038 13 146 0.0 0.0 0.00 0.00 0.00 97 1011.8
20260506110536 13 146 0.0 0.0 0.00 0.00 0.00 97 1011.9
20260506110033 13 146 0.0 0.0 0.00 0.00 0.00 97 1012.0
20260506105529 13 146 0.0 0.0 0.00 0.00 0.00 97 1011.7
20260506105026 13 146 0.0 0.0 0.00 0.00 0.00 97 1011.5
20260506104524 13 146 0.0 0.0 0.00 0.00 0.00 97 1011.3
20260506104022 13 146 0.0 0.0 0.00 0.00 0.00 97 1011.3
20260506103519 13 146 0.0 0.0 0.00 0.00 0.00 97 1011.4
20260506103015 13 146 0.0 0.0 0.00 0.00 0.00 97 1011.1
20260506102514 13 146 0.0 0.0 0.00 0.00 0.00 97 1011.3
20260506102011 13 146 0.0 0.0 0.00 0.00 0.00 97 1011.1
20260506101507 13 146 0.0 0.0 0.00 0.00 0.00 97 1011.4
20260506101005 13 146 0.0 0.0 0.00 0.00 0.00 97 1011.5
20260506100503 13 146 0.0 0.0 0.00 0.00 0.00 96 1011.6
20260506100001 13 146 0.0 0.0 0.00 0.00 0.00 96 1011.4
20260506095459 13 146 0.0 0.0 0.00 0.00 0.00 96 1011.6
20260506094954 13 146 0.0 0.0 0.00 0.00 0.00 96 1011.3
20260506094453 13 146 0.0 0.0 0.00 0.00 0.00 96 1011.5
20260506093950 14 146 0.0 0.0 0.00 0.00 0.00 96 1011.4
20260506093449 14 146 0.0 0.0 0.00 0.00 0.00 96 1011.6
20260506092946 13 146 0.0 0.0 0.00 0.00 0.00 96 1011.7
20260506092444 14 146 0.0 0.0 0.00 0.00 0.00 96 1011.8
20260506091940 14 146 0.0 0.0 0.00 0.00 0.00 96 1011.6
20260506091438 14 146 0.0 0.0 0.00 0.00 0.00 96 1011.7
20260506090935 14 146 0.0 0.0 0.00 0.00 0.00 96 1011.4
20260506090433 14 146 0.0 0.0 0.00 0.00 0.00 96 1011.5
20260506085929 14 146 0.0 0.0 0.00 0.00 0.00 96 1011.4
20260506085426 14 146 0.0 0.0 0.00 0.00 0.00 96 1011.4
20260506084922 14 146 0.0 0.0 0.00 0.00 0.00 96 1011.4
20260506084420 14 146 0.0 0.0 0.00 0.00 0.00 96 1011.4
20260506083915 14 146 0.0 0.0 0.00 0.00 0.00 96 1011.3
20260506083413 14 146 0.0 0.0 0.00 0.00 0.00 95 1011.4
20260506082910 14 147 0.0 0.0 0.00 0.00 0.00 95 1011.6
20260506082407 14 146 0.0 0.0 0.00 0.00 0.00 95 1011.4
20260506081903 14 146 0.0 0.0 0.00 0.00 0.00 95 1011.3
20260506081401 14 146 0.0 0.0 0.00 0.00 0.00 95 1011.4
20260506080858 14 146 0.0 0.0 0.00 0.00 0.00 95 1011.6
20260506080355 14 146 0.0 0.0 0.00 0.00 0.00 95 1011.5
20260506073339 14 146 0.0 0.0 0.00 0.00 0.00 94 1011.2
20260506072836 15 146 0.0 0.0 0.00 0.00 0.00 94 1011.2
20260506072334 14 146 0.0 0.0 0.00 0.00 0.00 94 1011.1
20260506071831 14 146 0.0 0.0 0.00 0.00 0.00 94 1011.5
20260506071329 14 146 0.0 0.0 0.00 0.00 0.00 95 1011.4
20260506070825 14 147 0.0 0.0 0.00 0.00 0.00 94 1011.5
20260506070323 14 147 0.0 0.0 0.00 0.00 0.00 94 1011.4
20260506062300 15 146 0.0 0.0 0.00 0.00 0.00 93 1011.6
20260506061755 15 153 0.0 0.0 0.00 0.00 0.00 94 1011.5
20260506061253 15 152 0.0 0.0 0.00 0.00 0.00 94 1011.7
20260506060751 15 153 0.0 0.0 0.00 0.00 0.00 94 1011.6
20260506060249 15 153 0.0 0.0 0.00 0.00 0.00 94 1011.8
20260506051220 15 153 0.0 0.0 0.00 0.00 0.00 93 1012.2
20260506050718 15 153 0.0 0.0 0.00 0.00 0.00 93 1012.3
20260506050215 15 153 0.0 0.0 0.00 0.00 0.00 93 1012.4
20260506044706 15 153 0.0 0.0 0.00 0.00 0.00 92 1012.4
20260506044203 15 153 0.0 0.0 0.00 0.00 0.00 92 1012.6
20260506043700 15 153 0.0 0.0 0.00 0.00 0.00 92 1012.4
20260506043158 15 153 0.0 0.0 0.00 0.00 0.00 91 1012.4
20260506042657 15 153 0.0 0.0 0.00 0.00 0.00 91 1012.4
20260506042155 15 153 0.0 0.0 0.00 0.00 0.00 91 1012.3
20260506041653 15 153 0.0 0.0 0.00 0.00 0.00 90 1012.3
20260506041149 15 153 0.0 0.0 0.00 0.00 0.00 90 1012.4
20260506040647 15 153 0.0 0.0 0.00 0.00 0.00 90 1012.4
20260506040144 15 153 0.0 0.0 0.00 0.00 0.00 89 1012.5
20260506035641 15 153 0.0 0.0 0.00 0.00 0.00 89 1012.4
20260506035137 15 153 0.0 0.0 0.00 0.00 0.00 89 1012.4
20260506034635 16 153 0.0 0.0 0.00 0.00 0.00 89 1012.4
20260506034132 16 153 0.0 0.0 0.00 0.00 0.00 89 1012.3
20260506033629 16 153 0.0 0.0 0.00 0.00 0.00 89 1012.3
20260506033126 16 153 0.0 0.0 0.00 0.00 0.00 89 1012.4
20260506032623 16 153 0.0 0.0 0.00 0.00 0.00 88 1012.7
20260506032120 16 153 0.0 0.0 0.00 0.00 0.00 87 1012.6
20260506031617 16 153 0.0 0.0 0.00 0.00 0.00 87 1012.6
20260506031114 16 153 0.0 0.0 0.00 0.00 0.00 87 1012.7
20260506030612 16 153 0.0 0.0 0.00 0.00 0.00 86 1012.7
20260506030109 16 153 0.0 0.0 0.00 0.00 0.00 86 1012.7
20260506025606 16 153 0.0 0.0 0.00 0.00 0.00 85 1012.6
20260506025102 16 153 0.0 0.0 0.00 0.00 0.00 84 1012.6
20260506024559 16 153 0.0 0.0 0.00 0.00 0.00 83 1012.7
20260506024056 17 153 0.0 0.0 0.00 0.00 0.00 83 1012.6
20260506023551 17 153 0.0 0.0 0.00 0.00 0.00 82 1012.4
20260506023049 17 153 0.0 0.0 0.00 0.00 0.00 81 1012.5
20260506022541 17 153 0.0 0.0 0.00 0.00 0.00 80 1012.4
20260506022038 17 153 0.0 0.0 0.00 0.00 0.00 79 1012.3
20260506021535 17 152 1.6 1.6 0.00 0.00 0.00 78 1012.2
20260506021033 18 134 0.0 0.0 0.00 0.00 0.00 77 1012.1
20260506020530 18 133 0.0 0.0 0.00 0.00 0.00 76 1011.9
20260506020027 18 144 0.0 0.0 0.00 0.00 0.00 75 1012.1
20260506015525 18 144 0.0 0.0 0.00 0.00 0.00 74 1012.2
20260506015022 18 141 0.0 1.6 0.00 0.00 0.00 74 1012.0
20260506014519 18 171 0.0 0.0 0.00 0.00 0.00 73 1011.9
20260506014015 19 136 1.6 1.6 0.00 0.00 0.00 73 1012.0
20260506013513 19 157 0.0 0.0 0.00 0.00 0.00 73 1011.9
20260506013010 19 147 0.0 0.0 0.00 0.00 0.00 72 1012.0
20260506012505 19 158 0.0 0.0 0.00 0.00 0.00 72 1012.0
20260506012003 20 154 0.0 1.6 0.00 0.00 0.00 71 1011.8
20260506011500 20 138 1.6 1.6 0.00 0.00 0.00 70 1011.7
20260506010956 20 154 0.0 0.0 0.00 0.00 0.00 69 1011.6
20260506010456 20 140 0.0 0.0 0.00 0.00 0.00 69 1011.5
20260506005951 20 172 0.0 0.0 0.00 0.00 0.00 69 1011.9
20260506005449 20 181 1.6 3.2 0.00 0.00 0.00 69 1011.8
20260506004944 20 139 0.0 1.6 0.00 0.00 0.00 68 1011.9
20260506004442 20 169 0.0 1.6 0.00 0.00 0.00 68 1011.7
20260506003938 20 154 1.6 3.2 0.00 0.00 0.00 68 1011.6
20260506003435 20 186 1.6 1.6 0.00 0.00 0.00 67 1011.6
20260506002931 21 168 0.0 0.0 0.00 0.00 0.00 66 1011.5
20260506002427 21 153 1.6 1.6 0.00 0.00 0.00 65 1011.4
20260506001923 21 113 0.0 0.0 0.00 0.00 0.00 65 1011.5
20260506001420 21 175 0.0 1.6 0.00 0.00 0.00 64 1011.3
20260506000917 21 128 1.6 1.6 0.00 0.00 0.00 63 1011.2
20260506000416 21 191 4.8 4.8 0.00 0.00 0.00 63 1011.2
20260505235911 22 149 1.6 3.2 0.00 0.00 0.00 62 1011.2
20260505235410 22 162 0.0 1.6 0.00 0.00 0.00 61 1011.2
20260505234906 22 133 3.2 3.2 0.00 0.00 0.00 60 1011.2
20260505234404 22 104 4.8 4.8 0.00 0.00 0.00 59 1011.2
20260505233900 22 175 1.6 3.2 0.00 0.00 0.00 59 1011.0
20260505233358 22 148 9.7 11.3 0.00 0.00 0.00 58 1011.0
20260505232855 23 56 3.2 3.2 0.00 0.00 0.00 57 1011.3
20260505232353 23 160 8.0 9.7 0.00 0.00 0.00 56 1011.3
20260505231849 23 172 4.8 8.0 0.00 0.00 0.00 56 1011.2
20260505231347 23 130 8.0 11.3 0.00 0.00 0.00 55 1011.4
20260505230845 23 162 1.6 3.2 0.00 0.00 0.00 55 1011.2
20260505230342 23 109 1.6 3.2 0.00 0.00 0.00 55 1011.4
20260505225839 23 156 0.0 1.6 0.00 0.00 0.00 55 1011.1
20260505225336 24 180 4.8 4.8 0.00 0.00 0.00 54 1011.1
20260505224831 24 198 3.2 3.2 0.00 0.00 0.00 54 1011.1
20260505224329 24 145 1.6 3.2 0.00 0.00 0.00 53 1011.1
20260505223826 25 134 8.0 11.3 0.00 0.00 0.00 52 1011.2
20260505223323 25 190 1.6 3.2 0.00 0.00 0.00 52 1010.7
20260505222819 25 347 4.8 8.0 0.00 0.00 0.00 51 1011.1
20260505222315 26 193 4.8 4.8 0.00 0.00 0.00 51 1010.9
20260505221812 26 142 4.8 8.0 0.00 0.00 0.00 50 1010.9
20260505221309 26 173 4.8 8.0 0.00 0.00 0.00 50 1010.8
20260505220806 26 184 3.2 4.8 0.00 0.00 0.00 50 1010.7
20260505220303 26 214 4.8 4.8 0.00 0.00 0.00 49 1010.9
20260505215801 26 113 6.4 11.3 0.00 0.00 0.00 49 1011.0
20260505215259 26 197 3.2 3.2 0.00 0.00 0.00 50 1010.9
20260505214756 27 253 3.2 4.8 0.00 0.00 0.00 47 1010.8
20260505214253 27 193 1.6 1.6 0.00 0.00 0.00 49 1010.7
20260505213750 27 137 3.2 3.2 0.00 0.00 0.00 48 1011.0
20260505213248 27 212 8.0 12.9 0.00 0.00 0.00 47 1010.9
20260505212743 27 98 4.8 4.8 0.00 0.00 0.00 47 1011.0
20260505212241 26 102 4.8 8.0 0.00 0.00 0.00 49 1011.0
20260505211738 27 138 4.8 8.0 0.00 0.00 0.00 47 1010.9
20260505211235 27 44 4.8 4.8 0.00 0.00 0.00 49 1010.8
20260505210731 27 79 6.4 8.0 0.00 0.00 0.00 48 1010.9
20260505210228 27 182 3.2 3.2 0.00 0.00 0.00 48 1010.9
20260505205726 27 217 4.8 4.8 0.00 0.00 0.00 47 1011.0
20260505205224 27 172 4.8 9.7 0.00 0.00 0.00 48 1011.1
20260505204720 27 252 6.4 9.7 0.00 0.00 0.00 47 1010.9
20260505204218 27 254 8.0 12.9 0.00 0.00 0.00 47 1011.2
20260505203715 27 151 1.6 3.2 0.00 0.00 0.00 48 1011.1
20260505203212 27 190 8.0 12.9 0.00 0.00 0.00 46 1011.1
20260505202708 28 24 3.2 3.2 0.00 0.00 0.00 48 1010.8
20260505202204 27 221 3.2 4.8 0.00 0.00 0.00 47 1011.1
20260505201700 27 321 11.3 12.9 0.00 0.00 0.00 49 1011.3